CW7235 Weather Reports


time (UTC)temp
C
wind
direction
speed
KPH
gust
KPH
rain 1hr
cm
rain 24hr
cm
rain mn
cm
humidity
%
barometer
mb
20260505123006 15 224 1.6 6.4 0.00 0.00 0.00 90 1017.8
20260505121506 14 207 1.6 4.8 0.00 0.00 0.00 91 1017.8
20260505120005 13 196 1.6 4.8 0.00 0.00 0.00 92 1017.7
20260505114505 12 198 0.0 1.6 0.00 0.00 0.00 92 1017.6
20260505113005 11 203 0.0 0.0 0.00 0.00 0.00 91 1017.6
20260505101505 10 203 0.0 1.6 0.00 0.00 0.00 89 1017.0
20260505100005 10 204 0.0 0.0 0.00 0.00 0.00 89 1016.8
20260505094505 10 204 0.0 0.0 0.00 0.00 0.00 89 1016.9
20260505091505 11 204 0.0 0.0 0.00 0.00 0.00 88 1016.7
20260505084505 11 204 0.0 0.0 0.00 0.00 0.00 87 1016.4
20260505083006 11 204 0.0 0.0 0.00 0.00 0.00 87 1016.2
20260505081505 11 204 0.0 0.0 0.00 0.00 0.00 87 1016.2
20260505080006 12 204 0.0 0.0 0.00 0.00 0.00 86 1016.0
20260505074504 12 204 0.0 0.0 0.00 0.00 0.00 85 1016.1
20260505071505 12 204 0.0 0.0 0.00 0.00 0.00 84 1016.1
20260505070005 12 204 0.0 0.0 0.00 0.00 0.00 83 1016.1
20260505063004 13 204 0.0 0.0 0.00 0.00 0.00 82 1016.3
20260505061506 13 204 0.0 0.0 0.00 0.00 0.00 81 1016.4
20260505060005 13 204 0.0 0.0 0.00 0.00 0.00 81 1016.7
20260505054506 14 204 0.0 1.6 0.00 0.00 0.00 80 1016.7
20260505051505 15 204 0.0 3.2 0.00 0.00 0.00 78 1016.9
20260505041505 16 198 0.0 3.2 0.00 0.00 0.00 74 1017.0
20260505040009 16 193 0.0 3.2 0.00 0.00 0.00 73 1017.0
20260505033006 17 189 1.6 4.8 0.00 0.00 0.00 71 1016.9
20260505031506 17 192 0.0 4.8 0.00 0.00 0.00 70 1017.0
20260505024505 18 205 0.0 6.4 0.00 0.00 0.00 67 1016.9
20260505023006 18 187 0.0 3.2 0.00 0.00 0.00 65 1016.7
20260505021505 18 183 1.6 4.8 0.00 0.00 0.00 64 1016.6
20260505020007 19 180 0.0 6.4 0.00 0.00 0.00 63 1016.6
20260505014505 19 210 1.6 11.3 0.00 0.00 0.00 61 1016.6
20260505013005 20 268 3.2 14.5 0.00 0.00 0.00 60 1016.3
20260505011505 20 220 3.2 14.5 0.00 0.00 0.00 59 1016.2
20260505010007 20 219 3.2 14.5 0.00 0.00 0.00 57 1016.0
20260505004505 21 109 4.8 12.9 0.00 0.00 0.00 56 1015.6
20260505003006 21 160 3.2 14.5 0.00 0.00 0.00 56 1015.3
20260505001505 22 210 4.8 16.1 0.00 0.00 0.00 55 1015.3
20260505000007 22 193 3.2 12.9 0.00 0.00 0.00 53 1015.0
20260504234505 23 135 1.6 16.1 0.00 0.00 0.00 48 1014.8
20260504231505 23 32 3.2 11.3 0.00 0.00 0.00 42 1014.7
20260504230007 24 205 3.2 12.9 0.00 0.00 0.00 41 1014.7
20260504224504 25 213 4.8 16.1 0.00 0.00 0.00 40 1014.9
20260504223005 25 217 4.8 12.9 0.00 0.00 0.00 39 1014.9
20260504220005 26 180 4.8 16.1 0.00 0.00 0.00 38 1014.9
20260504214503 26 182 4.8 17.7 0.00 0.00 0.00 36 1014.9
20260504213006 26 167 4.8 16.1 0.00 0.00 0.00 37 1014.9
20260504210006 26 181 3.2 16.1 0.00 0.00 0.00 37 1014.9
20260504204505 26 161 6.4 16.1 0.00 0.00 0.00 36 1015.0
20260504203005 26 171 3.2 12.9 0.00 0.00 0.00 36 1015.0
20260504201505 26 210 4.8 19.3 0.00 0.00 0.00 37 1015.3
20260504200006 26 234 6.4 24.1 0.00 0.00 0.00 37 1015.1
20260504194505 26 205 4.8 19.3 0.00 0.00 0.00 38 1015.4
20260504193007 26 134 4.8 16.1 0.00 0.00 0.00 38 1015.6
20260504191505 26 184 4.8 16.1 0.00 0.00 0.00 38 1015.8
20260504184505 26 216 1.6 14.5 0.00 0.00 0.00 38 1016.4
20260504183004 25 265 4.8 16.1 0.00 0.00 0.00 38 1016.5
20260504181506 25 157 4.8 17.7 0.00 0.00 0.00 37 1016.8
20260504180006 25 319 3.2 12.9 0.00 0.00 0.00 38 1016.7
20260504174505 24 121 3.2 11.3 0.00 0.00 0.00 40 1016.8
20260504171504 24 223 4.8 12.9 0.00 0.00 0.00 41 1017.1